Theta_e
322 321 323 326 330 338 341 342 342 344 346 346 347 347 347 347 347 347 348 347 348 348 348 348 349 349 349 349 348 348 349 349 349 349 348 347 348 347 349 349 348 348 348 348 348 347 346 347 346 346 346 346 345 345 346 345 346 346 347 347 347 347 348 350 351 351 352 351 352 352 353 354 354 354 354 355 355 356 355 355 354 354 355 355 354
317 320 322 326 329 337 339 341 342 342 344 346 346 346 346 347 347 347 347 347 348 347 348 348 348 348 349 349 349 348 348 349 348 349 348 348 348 347 347 348 348 348 348 349 348 347 347 348 347 347 346 345 345 344 345 344 345 346 346 346 346 347 347 348 350 351 352 352 351 351 351 352 353 353 354 354 355 355 355 354 353 355 355 355 355
317 319 321 326 327 334 336 338 340 341 342 342 342 342 343 344 345 345 346 347 347 347 347 347 348 348 349 348 348 348 348 348 348 348 347 348 347 347 346 346 347 348 348 349 350 348 349 348 348 348 347 347 347 345 346 345 345 345 346 346 346 346 347 347 348 350 350 351 351 350 348 348 351 353 353 353 354 355 354 354 353 352 353 354 355
316 318 321 325 329 332 334 335 337 338 338 339 339 339 340 341 341 341 342 342 343 344 346 347 347 347 347 348 348 347 348 348 348 347 347 347 347 346 346 346 346 347 347 348 348 349 349 349 349 349 348 349 349 348 347 347 346 346 346 346 346 346 346 346 347 349 349 351 350 349 347 349 350 352 353 354 355 355 353 353 351 352 354 354 354
314 317 320 325 331 330 331 333 334 335 336 336 336 337 337 338 338 338 338 339 340 341 342 343 345 345 346 346 347 347 347 347 347 347 346 347 346 346 346 346 346 347 347 349 349 349 348 348 348 349 349 349 348 348 350 349 347 347 347 346 346 346 346 346 346 347 350 349 349 348 347 348 352 350 352 353 354 354 353 353 352 353 354 355 354
314 317 320 324 328 330 329 331 333 333 334 334 334 335 335 334 334 335 335 336 337 339 339 340 342 342 343 345 345 344 345 346 345 346 346 346 345 346 345 346 346 346 347 348 348 347 348 349 349 348 349 348 347 347 348 348 347 347 347 346 346 346 346 346 347 348 349 347 345 348 345 348 350 350 351 353 355 354 353 353 353 353 353 355 353
313 316 318 323 327 327 328 329 331 331 331 332 333 333 332 332 332 332 333 333 334 335 336 337 338 339 340 341 342 342 341 341 342 343 344 344 344 344 343 344 345 346 347 346 347 347 347 347 347 348 348 347 346 347 347 347 347 348 348 347 347 346 346 347 348 348 347 346 344 345 345 347 350 351 351 352 354 354 354 354 354 354 354 354 353
312 315 318 322 325 325 326 327 329 329 329 329 330 330 330 329 329 330 330 331 331 332 333 333 334 334 335 335 335 336 337 338 337 338 340 339 339 342 341 342 342 345 346 347 347 346 347 346 346 347 347 346 345 346 346 347 347 347 348 348 347 347 347 347 347 347 345 344 344 343 343 345 347 350 351 351 353 354 355 353 354 354 354 355 352
310 312 316 321 323 323 324 326 327 328 328 328 328 328 328 327 327 327 328 328 329 330 330 330 330 330 331 331 332 332 333 332 332 332 333 334 335 336 337 338 339 341 343 345 346 346 347 347 346 347 346 345 345 345 345 346 346 346 346 347 348 347 348 348 347 344 345 346 344 344 344 343 345 347 349 351 352 353 354 352 353 354 353 353 352
308 311 315 319 321 322 323 324 325 326 326 326 326 326 326 325 325 326 326 326 327 327 327 327 327 327 327 328 328 328 329 329 328 328 328 328 330 331 332 332 334 335 337 340 342 343 345 345 346 345 345 344 342 343 344 345 345 345 345 345 346 347 347 348 347 344 345 345 345 344 344 345 343 343 345 349 352 353 353 350 349 348 350 350 349
306 309 312 317 318 320 322 323 323 324 324 324 324 324 324 324 323 324 324 324 324 324 324 324 324 324 324 325 325 325 326 326 325 325 325 325 326 328 329 329 330 330 332 335 338 340 341 342 342 342 342 341 340 341 342 343 343 344 344 345 345 345 346 347 344 346 345 346 346 346 345 343 346 343 343 347 350 351 351 350 348 347 348 350 351
304 307 310 314 315 317 319 320 322 322 322 322 323 323 323 322 322 322 322 322 322 322 322 322 321 322 322 322 322 322 323 323 322 322 322 322 323 325 327 327 327 328 330 332 333 334 335 336 337 337 338 338 338 339 340 340 341 343 343 343 343 343 344 343 345 345 346 345 345 346 345 344 341 343 344 346 349 350 350 350 350 351 352 352 353
303 304 307 311 314 313 316 318 318 320 321 321 322 322 322 321 321 320 320 319 320 320 320 319 319 319 319 320 319 320 320 321 320 320 319 319 321 323 324 324 325 325 327 328 328 328 329 330 331 332 332 332 336 336 338 339 340 341 339 340 339 339 339 338 344 345 345 345 344 344 346 346 345 345 346 347 348 348 348 350 351 351 352 352 351
302 302 304 307 309 309 312 314 316 317 318 318 319 319 319 319 318 318 318 317 317 317 317 317 317 316 316 316 316 317 317 317 318 317 317 318 318 320 321 321 322 322 323 325 325 325 326 327 328 329 329 330 330 333 335 335 336 336 335 336 336 335 334 335 338 344 345 344 343 344 345 344 345 345 345 347 347 348 348 348 350 351 351 352 351
302 304 303 303 305 306 306 309 312 313 314 315 315 316 316 316 316 315 316 315 315 315 315 315 315 314 313 314 314 314 314 315 315 315 314 315 315 317 319 319 319 319 320 322 322 322 323 324 325 325 325 325 325 326 327 329 330 331 333 333 333 333 333 337 339 342 343 343 344 343 344 345 343 345 346 347 347 347 348 349 350 350 350 351 347
303 302 302 303 303 305 305 304 306 309 310 311 312 313 313 313 313 313 313 313 313 312 312 312 312 312 311 311 311 311 311 312 313 313 312 312 314 314 316 317 317 317 317 319 319 319 320 321 322 322 322 322 322 323 322 323 325 328 329 331 331 331 329 329 337 340 342 343 343 343 343 343 343 345 346 347 348 348 349 349 349 350 350 350 349
301 302 302 302 303 302 302 302 303 303 306 307 308 309 310 311 311 311 311 311 310 310 310 310 310 310 309 308 308 307 308 309 310 311 310 309 311 311 313 314 315 314 315 316 316 316 317 318 319 319 320 320 320 319 318 319 321 323 325 325 326 327 326 324 332 337 340 343 343 343 342 343 341 343 346 347 348 348 348 349 349 349 350 350 351
302 301 300 301 301 301 302 303 303 303 304 305 304 306 307 308 308 308 308 308 308 307 307 306 307 306 305 305 304 304 304 306 306 307 308 307 308 308 310 312 313 312 313 314 314 314 314 315 316 316 317 317 317 316 316 316 318 319 319 321 321 321 321 319 328 333 337 338 342 343 342 339 341 343 345 347 348 347 348 349 349 349 349 350 349
300 299 301 300 300 301 300 302 302 302 303 303 304 302 303 304 305 306 305 305 305 304 304 303 303 303 303 302 302 302 302 303 303 304 305 305 304 304 306 309 310 311 311 311 311 312 312 312 313 314 314 314 314 313 314 315 315 315 316 317 317 317 318 323 331 335 339 339 341 341 341 339 342 344 345 346 347 347 348 348 348 349 349 350 349
301 301 299 301 301 300 301 301 301 301 302 302 303 302 300 301 302 302 303 302 302 302 302 301 300 300 300 300 300 302 302 302 301 302 302 302 301 302 304 307 308 308 308 309 309 310 310 311 311 312 312 311 311 311 311 312 313 314 314 314 315 314 325 329 333 335 334 335 337 339 338 338 341 344 345 346 345 346 347 347 347 348 349 349 349
299 300 300 299 301 300 300 300 300 300 301 301 301 302 300 300 300 300 300 300 300 300 299 299 300 300 300 300 303 301 302 302 302 301 302 301 300 300 301 304 305 305 306 306 307 308 308 309 309 310 310 310 308 308 308 309 310 311 311 311 313 319 321 323 326 330 334 335 336 337 336 339 340 342 343 344 344 344 345 346 347 348 348 349 347
298 298 299 299 299 300 300 300 300 300 300 301 301 302 301 300 301 301 301 300 299 299 300 300 300 301 300 301 301 300 301 301 300 300 301 300 300 299 299 301 303 303 303 304 305 306 306 307 307 308 308 307 306 307 308 308 307 308 309 311 313 314 317 318 318 320 327 332 333 333 335 338 340 342 344 344 344 344 344 344 345 346 347 347 347
298 298 298 298 300 299 299 298 299 300 300 300 301 301 300 301 301 301 301 299 299 300 300 300 300 300 300 301 300 300 301 301 299 299 299 298 299 298 298 299 300 301 301 302 303 304 304 305 305 305 305 304 305 306 306 306 307 307 307 309 310 311 312 313 315 317 319 325 331 330 333 336 338 341 343 343 344 344 344 344 344 345 346 346 346
298 298 298 299 299 299 300 299 299 300 300 300 301 300 300 300 301 301 301 300 300 300 300 300 300 300 300 300 299 300 301 300 300 298 301 300 300 299 298 298 299 300 300 301 301 302 303 303 303 303 303 304 304 304 304 304 305 306 307 307 307 309 310 310 312 316 317 320 322 326 330 334 337 339 341 342 343 343 344 344 344 344 345 345 346
298 298 298 297 298 298 298 299 299 300 300 299 300 299 300 300 300 299 300 299 300 299 299 300 299 300 300 299 300 300 300 300 300 299 299 299 300 300 300 300 300 301 300 301 301 301 301 301 301 301 302 302 302 302 303 303 304 305 305 305 306 308 309 309 310 311 315 316 319 322 326 327 331 335 338 342 344 343 342 342 343 344 343 344 345
298 296 297 297 298 298 299 298 298 299 299 299 299 298 300 299 300 299 299 299 300 299 299 299 298 299 299 299 299 299 299 298 299 298 298 298 298 298 298 299 299 299 299 299 299 299 299 299 300 300 300 301 301 302 303 303 303 303 303 305 306 307 307 307 308 309 311 312 315 319 322 323 325 330 335 338 341 342 342 341 342 342 342 343 344
297 297 297 296 297 297 298 299 298 298 298 299 299 299 299 299 299 298 299 298 298 298 297 297 298 298 298 298 297 297 297 297 297 297 296 297 297 297 297 297 297 297 297 297 297 297 297 297 298 298 299 300 300 301 301 302 302 303 303 304 305 305 306 307 307 308 308 309 310 313 317 320 321 325 329 333 336 339 341 341 341 341 341 342 344
297 297 296 296 297 297 297 298 297 298 298 298 298 298 298 298 298 297 298 296 297 297 297 296 297 296 296 296 296 296 296 295 296 296 295 296 296 296 297 296 296 296 296 296 295 295 295 296 297 297 297 298 299 300 300 301 301 302 302 303 304 304 305 305 306 307 308 309 310 311 314 318 318 319 323 327 331 334 338 341 340 341 341 342 342
297 296 297 296 297 297 296 296 296 296 297 297 297 297 297 298 298 297 296 296 297 296 296 297 296 296 296 296 295 295 295 295 295 295 295 295 296 296 295 295 295 295 295 295 295 294 294 294 295 295 296 297 297 298 299 300 301 301 301 302 303 303 304 305 305 306 307 307 308 308 310 313 313 315 318 323 328 332 334 337 340 340 341 341 341
297 297 297 297 297 297 296 295 296 297 297 297 297 297 297 297 297 296 296 296 296 295 296 295 295 295 295 295 295 294 294 293 293 294 294 294 295 295 295 294 294 294 294 294 294 293 293 293 294 294 294 295 295 297 297 299 300 301 301 301 302 303 303 303 304 304 306 306 306 306 307 309 310 311 312 314 317 321 328 333 336 339 340 341 341
297 296 296 297 297 296 296 296 296 297 297 297 297 296 296 296 296 296 296 296 295 295 295 295 295 294 294 294 294 293 294 293 293 293 293 293 294 294 294 294 294 294 294 293 294 293 293 293 293 292 293 293 294 295 296 297 298 299 300 300 301 302 302 303 304 304 304 305 305 305 306 307 308 309 310 312 313 316 320 324 331 336 339 340 340
296 296 296 297 297 296 296 296 296 296 296 296 296 296 296 296 296 296 295 295 295 294 294 294 294 293 294 294 294 293 293 293 293 292 292 292 292 292 293 293 293 293 293 293 292 293 293 293 293 293 293 293 293 294 295 295 296 297 299 300 301 301 301 302 302 303 304 304 304 304 305 305 305 308 308 310 313 314 316 319 321 326 332 338 340
297 297 296 297 296 296 295 295 295 296 295 295 295 296 296 295 295 295 295 295 294 294 294 294 293 294 294 293 293 292 292 292 291 292 291 291 292 292 292 292 292 292 292 292 292 293 293 292 293 293 293 293 293 293 295 295 295 296 297 298 299 300 301 302 302 302 302 303 303 303 304 304 304 305 307 308 310 311 314 317 321 324 330 333 337
296 297 297 295 296 297 297 296 295 295 295 295 295 295 295 295 295 295 294 294 293 293 293 293 292 293 293 292 292 292 291 291 291 291 291 291 291 291 291 291 292 291 292 292 291 291 291 292 292 291 291 292 292 293 292 293 293 294 295 296 297 298 300 301 301 301 302 302 302 303 303 303 303 304 305 305 308 309 311 313 315 317 322 328 334
297 297 296 295 296 297 296 295 295 295 295 295 295 295 295 295 294 294 294 294 294 293 292 293 292 293 292 292 292 291 291 291 291 290 290 290 290 290 290 290 290 291 290 291 290 291 291 291 291 290 291 291 292 292 292 292 292 292 294 294 295 296 297 297 299 299 300 301 301 301 302 302 303 303 304 304 304 307 310 311 313 317 321 324 327
297 296 296 296 295 296 296 295 295 295 295 295 295 295 294 294 294 294 293 294 293 293 292 292 292 291 291 292 292 291 290 290 290 290 289 289 289 289 289 290 290 290 290 290 290 290 290 290 291 291 289 290 291 291 292 291 292 292 293 293 294 295 295 296 297 298 299 300 300 301 302 302 302 302 303 303 303 303 306 308 309 311 312 316 323
297 296 295 295 295 295 295 295 294 295 294 294 295 294 294 293 293 293 293 293 292 292 292 292 292 291 291 291 291 290 290 290 289 289 289 289 288 289 289 289 289 289 289 289 289 290 289 289 290 290 290 289 290 290 290 290 290 291 291 292 293 294 295 296 297 297 299 299 300 300 301 302 302 301 301 302 303 303 304 307 309 310 311 312 314
297 296 296 295 294 295 295 295 295 294 294 294 294 294 293 293 292 292 292 292 292 292 291 291 291 291 291 290 291 290 289 289 289 289 288 288 288 288 289 289 289 288 288 288 288 289 289 289 288 289 290 289 289 288 288 289 290 290 290 291 292 292 293 294 296 297 297 298 299 299 300 301 301 302 302 302 303 303 303 304 306 308 308 311 315
296 295 295 295 295 295 295 295 294 294 294 294 294 294 293 292 292 292 292 291 291 291 291 290 291 291 290 290 290 289 288 289 289 288 288 287 288 288 288 288 288 287 288 288 288 288 289 288 288 288 289 289 287 288 288 288 288 289 289 289 291 291 292 294 295 295 296 297 297 298 300 300 300 300 301 302 302 303 303 304 304 304 304 309 315
295 294 294 295 294 295 295 294 294 293 293 293 293 292 292 291 291 291 290 291 291 290 291 290 291 290 290 289 290 289 288 288 288 288 287 287 287 287 287 288 287 287 287 287 287 287 287 287 287 286 286 287 288 288 288 287 287 287 288 289 292 293 293 294 295 296 296 297 297 298 298 299 300 301 301 302 302 303 303 304 304 304 304 305 309
295 294 293 294 294 294 294 293 293 293 292 292 292 291 291 291 290 290 290 291 290 290 290 290 290 290 289 289 289 288 288 288 287 287 287 286 286 287 287 287 287 286 286 286 287 286 286 286 286 286 285 285 286 287 287 287 285 286 289 289 290 291 292 292 293 295 296 297 298 297 298 299 299 300 300 301 302 302 303 303 303 304 305 305 305
293 293 293 293 294 293 293 293 293 292 292 292 292 292 292 291 291 290 290 290 289 289 289 290 289 290 289 289 289 288 288 287 287 287 286 286 286 286 286 286 286 286 286 286 286 286 285 286 286 284 286 285 284 286 287 286 285 284 283 284 286 290 292 293 293 295 296 297 298 298 298 298 298 300 301 301 301 302 302 303 304 305 306 307 307
294 292 293 293 293 293 293 293 293 292 292 292 292 291 291 291 290 290 289 289 290 289 289 289 289 288 289 289 288 288 287 287 287 286 286 286 285 285 285 286 286 286 285 285 285 285 285 285 285 284 283 285 285 287 286 287 283 284 284 283 284 284 287 290 294 295 297 298 298 298 297 298 298 300 300 301 301 302 303 304 305 309 310 310 310
293 292 292 292 293 293 292 293 292 292 292 292 292 292 291 291 290 290 289 289 288 289 289 288 288 288 287 288 288 287 287 286 286 286 285 285 285 285 285 285 285 285 284 284 284 284 285 284 284 284 283 282 283 284 286 286 285 284 280 283 282 283 281 287 289 291 293 292 293 293 294 295 296 298 298 298 299 299 300 301 301 303 302 302 304
293 292 292 292 292 292 292 292 292 292 292 292 291 291 290 289 289 289 288 287 287 287 287 287 287 287 287 287 287 287 286 286 286 286 285 285 285 285 285 284 284 284 284 284 284 284 284 284 284 283 283 282 281 282 283 285 284 285 283 281 281 282 283 284 285 284 290 291 293 294 295 295 296 297 297 298 299 299 300 300 301 301 301 301 302
292 292 293 292 292 292 293 292 292 291 291 291 291 290 289 288 287 286 286 286 286 286 286 287 287 287 286 287 287 286 286 285 285 285 285 284 284 284 284 284 284 284 284 284 283 283 283 283 283 283 282 283 281 280 281 284 284 284 284 284 283 280 280 282 282 279 288 289 289 290 292 293 294 294 295 295 296 297 298 298 299 300 302 304 304
292 293 293 293 292 293 292 292 291 291 291 291 291 290 289 288 288 287 288 287 287 288 288 287 286 286 286 285 286 286 286 285 285 285 284 284 284 284 284 284 283 283 283 283 282 283 283 283 283 282 282 282 282 279 280 281 283 283 283 283 283 284 284 281 279 281 279 284 288 289 290 292 292 293 293 295 296 296 298 299 300 300 301 301 301
292 293 292 292 292 292 292 291 291 291 291 291 290 290 288 288 287 287 286 286 286 286 287 285 286 285 284 285 285 285 285 285 284 284 284 284 283 283 283 283 283 283 282 282 282 282 283 283 283 282 282 282 281 280 280 281 280 281 283 282 283 283 283 283 283 280 279 278 280 287 289 289 290 291 292 293 294 295 296 297 297 298 299 300 300
292 292 292 292 292 292 292 292 291 290 290 290 289 289 289 288 287 287 286 286 286 286 286 285 285 285 284 284 284 284 284 284 284 283 283 283 283 283 283 282 282 282 282 282 282 282 282 281 281 281 281 281 281 281 280 280 280 280 281 281 282 282 282 283 283 282 280 279 279 281 282 287 288 289 290 292 294 295 295 296 298 298 298 299 301
292 293 292 292 292 292 291 291 290 290 290 289 289 289 288 287 286 286 285 286 286 285 285 284 284 284 283 283 283 283 283 283 283 283 283 283 283 282 282 282 282 282 281 282 282 281 281 281 281 281 281 280 281 280 280 280 280 280 280 280 279 279 280 280 280 280 280 280 277 278 281 281 281 285 289 289 291 292 293 295 296 298 298 299 300
292 292 291 291 292 291 291 290 290 290 289 289 288 288 287 287 286 286 285 285 285 284 283 283 283 283 282 282 282 283 283 282 282 282 282 282 282 282 281 282 282 281 281 281 281 281 281 281 281 281 280 280 280 280 280 280 280 279 280 279 279 279 278 278 279 280 279 278 278 278 280 282 283 283 286 290 291 292 294 294 295 297 298 299 299
Wind_Speed
7 8 8 11 15 15 13 13 14 13 14 14 14 14 14 14 14 13 13 12 12 12 12 12 11 11 11 10 9 10 9 9 9 8 8 7 7 7 8 7 8 8 7 6 7 8 6 6 7 6 4 5 5 5 4 5 7 8 8 9 9 9 9 10 10 9 7 8 9 10 12 13 14 14 13 13 13 12 9 6 6 8 8 9 8
7 8 7 9 14 13 12 13 13 13 14 15 16 16 16 16 15 15 15 14 14 13 13 12 13 13 12 12 12 11 11 10 10 9 9 9 8 7 7 8 8 9 9 10 8 8 8 8 8 8 7 6 6 4 4 4 6 6 7 8 9 9 9 9 9 8 8 8 8 9 9 11 14 14 13 13 12 12 9 6 7 8 8 8 9
4 6 5 7 12 11 12 13 13 14 15 15 15 15 15 15 16 16 16 15 16 16 15 15 15 14 14 14 13 13 13 12 12 11 9 9 9 8 8 8 8 9 9 10 11 10 9 9 10 9 8 7 5 4 6 5 5 6 7 7 8 9 9 9 9 8 8 8 8 9 10 11 13 14 12 12 12 11 8 6 7 9 9 9 8
4 4 4 6 9 12 11 11 12 13 13 13 14 14 14 15 15 15 15 16 16 16 17 17 17 16 16 16 16 14 14 14 14 13 12 11 11 11 10 9 8 8 8 10 10 10 10 10 10 11 11 11 4 4 5 7 5 6 6 8 8 8 9 9 9 8 7 7 9 8 8 8 8 10 10 10 11 12 8 7 8 10 12 11 10
3 3 4 6 8 11 10 11 11 11 12 13 13 13 13 14 15 15 15 15 15 15 15 16 16 16 16 16 17 16 17 16 16 14 13 13 13 13 13 11 9 9 9 9 9 9 10 10 10 11 11 11 11 10 7 5 6 6 7 8 8 8 9 9 9 8 6 6 7 8 8 9 8 8 8 9 11 12 9 7 10 12 13 13 12
3 4 5 5 6 9 10 10 11 12 13 13 14 14 15 15 15 15 15 16 16 15 15 15 16 16 16 17 17 17 17 18 16 16 16 15 15 15 15 14 12 11 10 9 9 9 9 9 9 10 9 9 10 10 10 10 8 7 7 8 8 8 9 9 8 7 7 6 8 8 8 8 8 7 8 8 11 11 10 8 11 13 13 14 14
4 4 4 5 5 9 10 11 11 12 13 13 14 14 15 15 15 16 16 16 16 16 16 16 16 16 16 17 18 18 17 17 17 17 17 17 18 16 15 15 15 14 13 11 11 10 10 10 10 10 10 9 9 10 9 9 10 10 9 9 8 8 9 9 8 6 6 7 6 6 6 7 7 6 8 10 11 13 12 12 12 15 15 15 15
3 2 3 5 7 8 10 11 11 12 13 13 14 14 15 15 15 16 16 16 16 16 16 17 17 17 17 17 17 17 17 17 16 16 17 16 16 16 16 16 15 16 15 14 13 12 11 11 11 11 11 10 12 11 10 9 10 10 10 10 9 9 8 8 8 8 6 8 7 6 6 7 7 7 9 11 12 13 14 14 14 15 16 16 13
3 3 4 5 7 10 10 11 11 12 13 14 14 14 15 15 16 16 16 16 17 17 17 17 17 17 17 17 17 17 17 17 17 17 16 15 15 15 15 15 16 17 17 17 16 14 14 14 13 13 12 12 13 13 13 12 11 10 10 9 10 10 8 6 8 8 9 8 7 6 7 7 7 7 8 11 12 13 13 13 13 15 18 15 13
3 4 5 5 7 9 10 11 12 12 13 14 14 15 15 15 16 16 16 17 17 17 17 17 17 17 17 17 17 17 17 17 16 16 16 16 16 16 16 15 15 15 16 17 18 17 17 16 16 16 16 15 14 14 14 14 13 12 11 11 10 11 11 9 7 9 9 9 9 9 8 7 9 8 9 12 13 13 13 10 10 12 9 11 13
5 4 4 6 8 9 11 11 12 12 13 13 14 14 15 15 15 16 16 16 17 17 17 17 17 17 17 17 17 17 17 17 17 17 17 16 16 16 16 16 16 16 15 16 17 18 18 17 17 17 17 15 15 14 14 14 14 14 13 12 11 11 11 9 8 8 8 10 10 9 10 5 7 9 9 11 11 13 13 12 10 10 13 14 14
5 4 5 5 8 10 11 12 12 12 13 13 14 14 15 15 16 16 16 16 17 17 17 17 17 17 17 17 17 17 17 17 17 17 17 17 16 16 16 17 17 16 16 16 16 16 16 16 18 17 17 16 16 15 14 13 14 14 14 13 12 12 10 9 9 9 9 10 10 9 10 10 11 10 10 12 12 13 13 13 13 14 16 17 17
5 4 4 4 6 10 11 12 12 13 13 14 14 15 15 15 15 16 16 16 16 17 17 17 17 17 17 17 17 17 17 17 17 17 17 17 17 17 17 17 17 17 17 16 16 16 15 15 15 15 15 15 16 16 17 16 14 14 15 15 15 14 12 12 9 10 10 10 9 10 10 10 10 10 11 14 14 14 15 15 16 17 17 17 18
5 5 4 5 5 9 11 12 12 13 13 14 14 14 15 15 15 15 15 16 16 16 16 16 16 16 17 16 16 16 16 16 16 16 16 16 16 16 16 16 16 17 17 17 17 16 16 16 16 15 15 16 16 16 17 17 18 17 17 16 16 15 13 10 9 9 11 11 10 10 11 10 11 10 10 13 15 15 15 14 15 17 18 17 14
6 5 4 4 4 6 10 12 11 13 13 13 14 14 15 15 15 15 15 15 15 15 15 15 15 15 15 16 15 15 15 15 15 15 15 15 15 15 15 15 16 16 16 16 16 16 17 17 16 16 16 15 16 16 17 16 16 16 16 16 16 15 15 10 9 9 10 10 10 11 10 10 11 10 12 14 17 17 17 16 15 16 17 17 8
4 4 4 4 5 5 5 9 11 11 12 13 13 14 14 14 14 14 14 15 15 15 15 15 14 14 15 14 14 14 14 14 14 15 15 15 15 15 15 15 15 15 16 16 16 16 16 16 16 16 16 16 15 16 16 16 16 16 17 17 16 15 15 12 9 10 9 10 10 10 11 10 10 11 13 16 18 18 18 18 17 16 16 16 13
4 3 5 5 5 4 5 7 7 10 11 13 13 13 13 13 14 14 14 14 14 14 14 14 14 14 14 14 14 14 14 14 14 15 15 16 15 16 16 15 15 15 15 15 16 16 16 16 16 16 16 16 16 16 15 15 15 16 16 17 17 16 15 14 9 10 9 10 10 10 11 11 10 10 13 16 17 18 18 18 18 18 16 15 15
3 3 4 5 5 5 5 5 5 6 6 7 12 13 12 13 13 13 13 13 14 14 14 14 14 14 14 13 13 13 14 14 13 15 15 16 16 15 17 16 16 16 16 15 16 16 16 16 15 15 16 16 16 16 16 14 14 14 15 16 16 16 16 16 9 10 11 10 10 11 11 12 10 11 14 16 17 19 19 18 18 18 18 16 13
3 3 3 4 5 5 5 4 5 5 5 5 5 9 12 11 12 12 13 13 13 13 13 13 13 12 12 12 11 10 11 13 13 13 14 15 16 14 16 16 16 16 16 15 15 15 15 15 15 15 15 15 15 15 15 14 13 14 13 14 16 15 16 12 8 8 10 9 9 10 10 10 8 13 16 17 18 19 20 20 19 18 18 18 16
3 3 4 3 4 4 3 4 4 5 5 5 5 6 8 10 11 12 12 12 13 12 12 12 11 11 10 10 8 8 8 8 12 10 12 13 15 14 15 16 16 16 16 16 15 15 15 15 15 15 15 14 15 14 11 11 13 13 14 15 14 16 9 6 9 9 9 9 9 10 11 10 13 15 18 19 20 20 20 21 21 19 18 18 16
4 4 4 5 4 4 4 4 4 5 5 4 4 5 5 5 7 9 10 11 10 10 9 9 8 8 8 8 5 7 6 6 8 9 9 9 12 13 14 15 15 15 16 15 15 15 16 15 15 15 15 15 14 12 8 9 11 11 13 13 14 8 7 8 9 9 9 9 9 10 11 11 14 18 19 20 21 21 21 21 22 21 20 19 17
7 6 5 5 5 4 5 4 4 4 4 3 2 2 3 4 5 5 5 6 7 6 6 6 7 6 6 5 5 5 5 5 6 8 6 7 8 11 12 12 13 13 15 14 14 13 15 14 14 15 15 13 13 7 6 7 9 10 10 10 7 6 7 8 9 9 10 10 10 10 10 13 16 19 22 22 21 20 21 22 22 23 21 19 18
7 6 5 6 4 4 4 5 4 5 5 4 2 2 3 3 3 3 3 5 5 6 5 6 6 6 6 5 5 5 5 4 5 5 4 4 4 6 8 9 10 11 14 12 12 12 14 12 13 13 13 11 7 6 6 7 7 8 8 6 6 6 7 8 8 8 9 9 10 12 11 13 16 20 22 23 23 22 21 21 22 23 22 20 19
8 6 6 5 5 5 5 4 5 4 4 3 2 2 2 2 2 2 3 3 3 3 5 5 6 6 5 5 4 5 4 4 4 4 4 5 4 4 6 6 7 8 12 8 10 9 13 11 11 12 8 7 7 7 7 7 7 6 6 6 6 7 8 7 7 8 8 9 10 14 14 16 19 21 23 24 24 24 24 23 22 22 22 21 20
7 6 6 6 7 6 5 5 4 4 4 3 2 2 2 2 2 2 3 3 3 4 4 4 5 6 6 5 5 5 4 4 5 5 5 5 5 5 6 6 6 7 9 7 7 8 8 8 7 8 7 7 7 7 7 7 7 7 7 7 7 7 7 7 7 8 8 9 10 11 13 17 19 21 23 24 25 24 24 24 23 23 22 22 21
7 7 7 7 7 6 6 5 5 4 3 3 2 3 1 2 2 3 3 3 4 4 4 4 4 6 5 6 5 5 5 5 5 6 6 5 6 6 6 6 7 7 8 7 7 8 8 7 7 7 7 7 7 7 7 7 7 7 7 7 7 7 7 7 7 8 8 8 10 11 13 15 18 20 21 24 26 27 27 24 24 24 24 23 23
8 8 8 7 7 7 6 5 5 4 4 3 3 2 2 2 3 3 3 3 3 3 4 4 4 5 5 6 5 5 5 5 5 6 6 5 5 5 5 5 6 6 7 7 7 7 7 7 7 8 8 8 8 7 7 7 7 8 8 8 7 8 8 7 7 8 8 9 10 12 12 14 18 19 21 23 26 27 27 26 24 23 23 23 24
9 9 8 7 8 8 8 6 5 5 4 4 3 3 3 3 2 2 3 4 3 3 3 4 4 4 6 6 6 5 5 5 5 5 5 4 4 4 4 4 4 4 5 5 6 6 6 6 7 7 7 7 8 8 7 7 7 7 8 8 8 8 8 8 8 9 8 9 10 12 11 12 15 18 20 21 23 26 27 28 26 25 25 24 25
10 10 8 8 9 8 8 7 6 5 4 4 3 3 2 2 2 2 3 3 3 3 3 3 4 4 5 6 6 5 5 5 5 5 4 4 4 4 3 3 3 4 5 5 5 6 6 6 6 7 7 7 7 7 7 8 7 7 8 9 9 9 9 9 9 9 9 9 9 10 12 13 17 18 19 20 21 23 26 27 28 28 26 26 26
11 11 10 8 8 9 8 7 6 5 4 4 3 3 2 3 3 3 3 2 3 3 3 3 3 3 3 4 5 5 4 5 5 5 5 5 4 4 3 3 4 4 4 5 5 6 6 6 6 7 7 7 7 7 7 7 7 8 8 8 9 9 9 9 9 9 9 9 10 10 12 12 14 19 21 21 22 22 25 27 28 29 29 28 27
12 12 10 9 8 9 8 7 6 5 4 4 3 3 2 3 2 2 2 3 3 3 3 2 2 2 3 3 4 5 4 4 5 6 6 6 5 5 4 4 3 4 4 5 5 6 6 6 6 7 7 7 7 7 7 8 8 8 8 8 9 8 9 9 9 10 10 10 10 10 12 14 15 17 18 20 21 22 23 25 27 28 29 29 28
14 13 10 9 9 10 9 8 7 5 5 5 4 3 2 2 2 1 2 3 3 2 2 1 1 1 2 3 3 4 4 4 5 5 6 6 5 5 4 4 4 4 4 5 6 6 6 6 7 7 8 7 7 7 7 7 8 8 8 9 9 9 9 9 10 10 10 10 10 11 11 12 14 15 17 19 22 22 23 24 25 27 29 29 28
10 12 11 11 11 10 9 8 7 6 5 5 4 3 2 2 2 1 2 2 2 1 1 0 1 1 1 2 3 4 3 4 4 5 6 6 6 6 5 4 4 5 5 6 7 6 6 6 7 7 7 7 7 7 7 7 8 8 8 9 9 10 10 9 9 10 11 11 11 11 11 12 13 15 17 17 20 21 21 22 23 25 26 28 29
11 10 12 12 10 7 6 6 7 7 6 5 4 4 3 3 2 2 2 2 1 1 1 0 0 0 1 1 2 3 3 3 4 5 5 5 5 5 5 5 4 6 5 5 6 6 6 7 8 7 7 7 7 8 8 8 8 8 9 9 9 10 10 10 10 10 10 11 11 11 11 11 11 11 12 15 16 19 22 23 24 25 25 27 27
10 12 14 14 11 9 7 6 7 8 7 6 6 4 4 3 3 2 2 1 1 1 1 1 1 1 0 0 0 2 3 3 4 4 5 5 5 5 5 4 5 6 5 4 5 6 6 7 7 7 7 7 7 8 8 9 9 9 9 9 10 10 10 11 11 11 11 11 11 11 11 11 11 11 11 11 13 16 17 19 22 22 24 26 28
14 13 13 12 12 11 9 8 9 9 8 7 6 5 5 4 3 2 2 2 1 1 1 1 1 1 1 1 1 1 3 3 4 4 5 5 5 5 5 5 6 5 4 4 5 5 5 6 6 7 8 8 8 8 8 9 9 10 10 10 10 10 11 11 12 12 11 11 11 12 11 12 12 11 12 12 12 14 17 19 22 24 25 26 27
14 14 15 13 13 12 11 10 11 10 9 8 7 6 4 4 3 3 2 2 2 2 2 2 2 2 1 1 1 2 3 3 4 4 5 5 5 5 5 5 5 5 4 4 5 5 5 6 6 6 7 8 8 9 9 9 10 10 11 11 11 11 11 11 11 11 11 12 12 13 12 13 13 15 13 12 12 12 15 16 19 22 23 25 29
14 15 15 14 13 12 11 10 9 9 7 7 7 6 5 4 3 3 3 3 3 2 2 2 2 2 2 2 2 3 3 4 4 4 5 5 5 5 6 6 6 5 4 5 5 5 5 6 7 7 7 8 8 9 10 9 9 10 11 11 12 11 12 12 12 12 12 13 13 13 13 12 12 13 12 12 13 13 13 16 19 21 22 22 25
13 16 14 13 11 11 10 10 9 9 8 7 7 6 5 4 3 3 3 4 3 3 2 3 3 2 3 2 3 3 4 4 4 5 5 5 5 5 6 6 6 5 5 5 5 5 5 6 8 8 7 7 8 9 9 10 10 10 11 14 13 14 12 12 12 12 12 13 13 14 12 13 13 13 13 13 12 13 14 13 13 12 13 19 22
13 15 15 14 13 12 10 9 9 9 8 7 7 6 5 5 5 4 4 4 4 4 3 4 3 3 3 3 4 4 4 4 5 5 5 5 5 5 6 6 6 5 5 5 5 4 6 8 8 8 9 8 7 7 8 9 11 13 14 13 12 13 14 13 14 13 13 13 13 12 12 11 11 12 12 12 12 13 13 13 13 13 14 16 20
14 15 15 15 15 14 13 13 11 11 9 9 8 8 7 5 4 5 4 4 4 4 4 4 4 4 3 4 5 5 5 5 5 5 5 5 5 6 6 6 6 5 5 5 5 7 6 7 7 7 8 9 7 6 7 8 11 13 10 12 13 13 16 16 16 14 14 13 11 11 11 11 11 11 11 11 13 13 13 13 13 13 14 13 14
16 17 17 17 16 16 15 13 11 11 10 10 8 7 6 6 5 5 5 4 4 4 4 4 4 4 4 5 5 6 6 6 5 5 5 6 6 6 6 7 6 5 5 6 6 6 7 6 6 8 6 7 8 7 7 8 8 9 15 17 14 10 11 13 14 14 13 11 10 11 11 12 13 12 11 11 13 13 13 13 13 13 13 13 14
17 18 17 16 16 15 14 13 11 10 9 9 8 7 6 5 5 4 4 3 3 2 2 3 3 4 5 5 6 6 6 6 6 6 5 6 6 7 7 6 6 5 5 5 5 6 5 7 7 7 9 7 8 6 6 4 8 9 10 12 13 18 13 7 10 9 7 8 9 11 12 13 14 13 12 12 12 12 12 12 13 13 13 13 13
15 15 16 18 14 13 14 13 11 10 9 9 8 6 6 5 5 3 3 2 2 2 4 5 6 6 7 7 6 6 6 6 6 6 6 6 7 7 7 6 6 5 5 5 6 6 6 6 6 7 7 10 7 7 5 6 6 7 9 6 13 11 18 7 8 12 11 17 17 16 14 13 14 14 13 14 14 13 13 13 14 15 15 15 14
15 16 16 16 11 16 14 13 11 11 9 9 10 8 7 6 5 4 3 3 4 5 5 6 6 6 6 6 7 6 6 6 6 7 7 7 7 7 7 7 6 5 5 5 5 6 6 6 7 7 7 8 11 9 7 6 8 6 7 9 9 9 11 15 16 19 8 9 7 9 11 13 13 13 12 13 13 13 14 14 15 15 16 16 16
16 15 14 15 13 14 14 13 10 10 10 11 11 9 8 7 7 6 6 6 6 6 7 6 5 5 5 4 5 6 6 6 6 7 7 7 7 7 7 7 6 5 4 5 6 6 6 7 6 7 8 8 9 11 10 6 7 9 11 11 10 12 15 17 13 16 10 11 15 13 12 13 13 14 14 15 16 15 15 16 15 15 15 14 14
17 13 13 14 16 14 14 14 12 10 10 11 12 9 8 7 8 7 6 6 5 5 4 3 3 4 4 5 5 5 6 7 7 6 6 6 7 7 7 6 6 6 5 5 6 7 7 7 6 7 7 7 8 11 11 10 8 9 10 13 15 15 14 12 14 14 19 14 7 10 12 12 14 16 16 16 16 15 14 14 15 15 16 16 16
15 13 13 13 17 16 15 15 12 11 10 11 12 10 9 8 8 7 6 6 6 5 4 4 4 4 5 6 5 5 5 6 6 7 6 6 7 7 7 6 6 6 6 6 7 7 7 7 7 8 8 8 9 10 11 9 9 10 7 10 12 14 16 17 18 15 17 19 22 13 11 13 12 14 16 17 17 16 18 17 18 17 16 17 16
14 15 15 14 14 14 14 14 13 12 11 13 12 11 9 9 8 7 7 6 6 5 4 4 4 4 6 6 6 6 6 7 7 7 7 7 7 7 6 6 6 6 6 6 7 8 9 9 9 8 9 9 8 9 10 11 10 11 9 11 11 12 12 13 14 14 14 16 22 18 18 15 14 15 14 15 16 15 16 17 17 17 16 16 16
12 14 13 12 13 12 14 15 15 12 11 14 12 12 11 9 9 9 9 7 6 5 5 5 5 5 6 6 6 6 6 6 6 7 7 7 7 7 6 7 7 7 6 7 8 9 9 10 10 10 10 11 10 10 12 12 11 12 11 11 11 11 12 12 13 13 16 17 19 21 18 18 20 17 13 15 18 17 17 17 18 18 17 16 16
11 14 13 14 13 13 14 16 16 12 13 14 13 13 12 10 9 10 10 9 8 6 5 6 6 5 5 5 5 6 6 6 6 6 7 7 7 6 6 6 7 7 7 8 8 8 8 9 9 11 12 12 11 12 13 14 12 13 13 12 13 12 12 13 12 12 13 14 14 18 19 18 18 20 18 15 15 16 16 15 17 18 17 17 17
Wind_Direction
26 353 337 337 335 337 19 24 28 32 37 43 47 49 49 49 50 52 49 48 50 51 51 49 49 45 42 38 30 25 20 12 14 8 4 10 358 347 358 2 344 330 324 320 324 328 333 334 331 330 321 331 329 326 335 325 321 318 319 320 318 321 321 318 319 322 313 309 305 306 305 303 300 301 301 297 294 290 271 236 232 241 245 228 239
335 333 338 339 334 348 25 29 33 36 39 42 44 47 45 46 45 47 48 48 49 50 51 49 50 51 50 50 46 41 36 31 24 19 13 10 8 6 357 354 344 340 336 330 326 319 324 328 325 328 327 327 329 288 287 284 293 297 299 305 305 307 308 309 311 314 308 301 301 295 294 294 293 292 292 291 290 285 267 236 233 249 246 243 220
318 330 335 345 333 356 30 36 39 41 44 46 46 48 48 48 48 46 46 45 45 45 47 49 49 48 50 52 50 49 47 45 41 35 29 23 20 21 14 2 347 339 339 333 330 332 329 325 324 326 326 329 344 293 270 279 265 279 286 288 297 297 299 299 302 306 309 298 290 293 284 267 266 272 274 280 283 281 269 237 231 241 260 252 218
350 338 342 359 4 27 34 38 43 46 48 49 51 51 53 51 51 50 49 48 47 44 43 42 43 43 44 47 47 47 49 49 45 44 44 41 36 29 23 12 355 345 346 338 333 335 330 330 327 322 328 332 293 257 274 267 255 252 268 280 285 291 291 293 293 298 303 306 294 290 291 284 263 239 257 277 280 279 262 233 229 234 247 256 237
341 352 6 16 28 35 36 41 47 49 51 52 52 53 54 53 54 53 51 50 50 49 47 46 44 44 42 43 44 42 45 44 45 43 43 44 43 41 34 28 18 6 352 349 341 339 336 332 329 326 327 336 348 337 322 294 260 256 258 269 280 283 287 288 288 286 292 295 300 285 279 274 275 282 270 274 279 277 267 229 227 237 239 248 241
359 15 20 18 37 41 36 48 50 52 53 53 53 54 53 53 53 53 52 51 51 50 49 48 47 45 41 42 44 44 43 41 39 37 39 38 40 38 33 28 25 19 15 10 359 351 344 343 337 335 335 338 342 344 344 336 305 272 261 274 275 287 290 289 289 285 280 283 274 266 268 268 274 274 275 281 282 278 268 237 235 234 235 239 243
35 19 13 29 48 37 33 47 53 53 54 54 55 55 53 52 52 52 52 50 50 50 50 49 48 46 44 42 42 44 42 41 38 35 34 30 31 34 31 22 20 18 16 15 14 7 358 349 345 341 342 345 340 340 338 336 334 314 297 287 284 283 289 289 287 291 285 282 277 281 281 283 285 284 272 271 277 281 275 258 242 241 239 237 237
59 27 34 52 50 40 40 50 52 55 56 56 56 56 55 53 52 51 51 50 49 49 49 48 48 47 46 45 44 43 43 42 40 38 35 33 26 25 28 24 21 19 15 14 12 10 6 4 3 357 354 359 354 345 339 336 330 327 319 303 290 282 280 273 280 281 287 284 280 283 281 290 287 284 286 282 279 282 282 273 259 247 241 238 234
88 53 54 57 61 40 46 52 56 56 56 57 56 55 54 53 52 51 50 48 48 47 47 47 46 46 46 45 44 44 43 42 40 37 35 34 31 26 24 19 25 20 17 15 14 13 12 12 12 13 15 14 10 0 350 342 340 335 328 320 306 298 291 280 271 274 271 272 278 274 284 278 282 283 280 280 277 277 281 282 278 260 249 241 234
75 67 50 56 58 49 55 56 57 58 60 58 57 56 56 53 52 51 49 49 48 47 46 46 45 45 44 44 43 42 42 42 40 37 34 31 28 27 25 22 19 14 13 9 5 9 17 18 18 17 19 15 8 1 357 351 343 339 333 330 319 308 301 292 291 270 276 281 286 281 272 285 280 277 280 286 286 284 284 283 283 291 282 248 239
68 60 58 62 52 53 57 62 60 61 62 61 60 59 57 56 54 52 50 49 49 48 47 45 45 44 43 42 41 41 40 40 39 37 34 31 28 25 25 24 24 20 15 12 9 5 3 6 8 13 10 6 0 357 354 352 347 341 339 336 329 320 309 299 287 286 280 285 284 283 285 205 259 271 268 270 276 283 282 280 279 268 265 259 242
75 68 59 56 60 50 59 60 61 63 63 63 62 60 58 56 55 53 52 50 49 48 47 45 45 44 43 41 40 40 39 39 37 36 34 30 28 26 24 23 22 19 18 16 15 13 6 359 2 3 4 4 357 353 349 348 346 344 342 340 340 335 321 303 292 287 282 281 283 284 283 281 281 271 270 267 267 269 275 274 270 264 262 256 253
72 66 61 58 63 48 55 58 61 61 62 62 62 60 59 57 55 54 53 52 50 49 47 47 45 43 42 40 40 39 38 38 37 35 32 30 28 26 25 23 21 18 16 15 14 12 10 9 7 3 359 357 358 356 352 350 348 354 348 342 341 341 338 323 298 287 285 282 280 279 277 273 271 267 269 271 269 269 271 275 276 272 266 261 258
91 77 67 69 62 50 51 56 59 60 60 61 61 61 61 59 57 56 54 53 53 51 50 48 46 45 42 41 39 38 38 37 37 35 33 30 28 26 25 23 22 19 16 13 12 10 8 7 7 6 4 0 358 357 355 351 348 348 344 340 337 336 335 312 293 284 278 276 276 274 276 274 272 276 265 266 268 268 270 271 272 274 271 267 264
93 73 73 79 83 71 56 54 59 59 60 61 61 60 60 59 58 57 55 54 52 51 51 50 48 46 45 42 40 38 37 35 35 35 33 30 28 25 23 23 22 19 15 14 12 9 6 5 4 4 3 2 359 356 353 349 345 343 340 338 338 336 337 325 311 289 279 278 275 271 266 266 268 274 268 267 271 270 271 270 271 272 273 268 245
91 92 83 77 77 79 81 65 58 57 59 61 60 61 60 59 58 57 55 54 51 50 49 48 48 47 45 43 41 39 36 36 33 33 31 28 27 23 20 21 20 18 15 13 11 9 6 4 3 1 360 359 359 358 354 350 346 343 342 340 338 338 337 334 307 292 282 276 271 270 268 266 267 268 266 268 271 271 271 272 273 272 271 268 256
103 100 94 84 77 83 77 71 64 69 62 58 58 59 60 60 60 59 57 55 53 52 47 45 43 42 41 40 39 37 36 34 33 30 30 25 23 21 16 17 17 15 13 11 10 8 6 3 2 359 357 356 355 354 352 350 346 344 342 339 338 337 333 331 305 291 285 281 279 274 272 272 265 259 260 267 270 272 271 272 274 275 271 264 262
115 113 104 94 85 80 76 73 69 67 69 73 61 52 55 57 57 57 57 55 54 51 48 45 42 40 37 33 33 33 33 29 30 28 27 24 19 16 12 13 13 12 10 9 8 6 4 2 0 357 356 353 351 348 346 345 346 346 341 338 335 329 321 309 288 281 280 283 278 272 270 269 271 269 268 267 269 273 275 273 273 274 275 269 252
130 118 109 106 98 90 90 84 74 72 68 65 68 59 51 55 56 56 54 52 52 50 49 46 41 37 33 31 25 29 27 29 21 24 20 21 18 13 9 10 9 8 6 6 4 3 0 359 357 354 352 350 347 343 339 339 342 342 340 337 330 320 304 286 279 284 283 278 276 271 268 277 283 274 271 269 267 270 273 274 272 271 272 273 262
158 155 135 120 103 105 105 95 84 76 74 74 73 73 60 57 57 56 54 53 49 47 45 40 39 30 26 16 19 19 25 29 21 18 15 16 16 10 7 8 7 5 2 1 359 358 356 355 354 351 349 346 343 335 330 333 338 338 338 333 326 306 291 298 305 296 286 280 279 280 281 292 284 278 276 274 272 272 271 272 273 271 271 271 266
179 175 168 141 137 129 122 109 93 87 82 80 78 74 61 67 70 60 59 53 48 47 43 43 33 37 15 17 15 24 23 21 19 10 9 13 18 7 5 5 5 4 359 356 355 354 352 350 350 349 346 342 338 325 322 335 333 334 334 327 305 293 315 316 312 301 293 287 280 274 274 275 277 275 272 274 276 275 274 274 275 273 270 269 269
180 174 171 157 152 141 131 129 116 104 100 96 92 91 103 77 69 73 62 64 54 51 53 41 40 29 19 26 26 26 17 26 20 8 3 5 15 4 2 1 2 2 357 350 350 350 348 347 345 344 340 340 333 331 336 335 329 333 323 300 296 322 319 319 313 301 296 288 283 281 289 282 278 275 276 273 271 268 272 274 275 275 272 269 268
183 175 166 169 161 148 153 131 128 128 121 116 120 118 106 98 92 85 88 70 63 52 49 43 37 26 22 22 26 23 9 21 19 4 332 344 10 354 355 354 354 355 354 343 346 346 343 341 342 341 334 335 334 339 338 333 330 329 318 321 328 320 320 309 302 297 295 296 291 291 291 285 281 283 280 275 270 269 266 267 272 274 274 270 268
179 174 159 164 169 162 154 145 144 149 153 127 138 124 106 101 87 80 77 75 61 58 54 47 37 29 22 23 21 14 4 12 11 14 344 9 14 3 357 349 356 354 351 340 343 348 338 339 338 338 333 343 341 335 335 330 328 329 326 323 321 319 312 307 300 298 295 295 291 300 312 308 294 278 275 278 279 278 274 269 268 269 271 271 268
173 159 159 172 175 167 162 155 154 151 144 139 144 120 118 108 89 83 75 66 55 52 49 49 41 28 26 20 14 13 5 15 13 9 9 11 7 7 4 5 2 357 352 350 348 344 340 340 338 339 339 336 335 332 331 328 325 323 321 318 315 310 305 302 299 295 294 291 290 300 310 307 304 303 296 286 279 274 268 268 267 269 269 269 268
161 170 172 168 176 174 173 158 158 150 140 138 127 122 167 88 75 62 73 58 54 46 42 38 35 29 22 16 7 13 10 13 10 8 7 7 8 6 4 3 359 358 357 354 353 345 341 342 338 338 334 331 326 324 321 319 317 317 314 312 307 306 304 300 295 293 291 291 290 302 304 298 297 296 294 292 289 284 279 272 270 269 269 269 268
172 177 169 172 174 173 173 172 160 147 138 131 134 126 90 80 63 50 50 58 54 49 47 41 39 33 22 21 11 9 8 7 5 3 3 2 6 2 1 360 358 356 355 350 350 345 341 339 339 334 332 326 322 319 313 313 309 307 306 306 304 302 300 296 294 292 291 289 288 289 289 290 293 294 295 295 295 295 289 282 278 274 275 274 269
177 176 175 171 175 178 173 174 164 161 151 143 130 123 95 81 82 90 69 51 49 53 47 40 35 36 33 20 10 7 4 3 359 356 351 354 355 351 352 354 354 352 346 344 342 339 334 335 331 327 324 320 316 314 312 310 308 300 300 301 302 297 295 294 290 289 287 286 287 284 285 296 301 298 295 293 291 293 295 291 282 275 272 273 272
184 178 176 177 177 174 176 177 162 168 151 142 128 116 114 102 86 75 72 47 59 52 42 39 34 32 33 21 13 3 4 359 355 345 337 344 339 343 344 354 344 349 345 344 343 335 331 330 329 330 327 322 318 315 315 308 304 306 301 300 296 294 293 290 289 288 286 286 287 287 292 292 290 292 293 292 293 291 290 291 291 285 279 273 271
185 176 177 181 176 173 181 175 172 163 149 145 133 137 133 113 85 72 68 70 64 58 44 42 37 25 32 17 16 6 2 356 349 341 336 336 331 336 342 352 345 348 347 341 341 332 328 323 325 322 323 322 317 315 311 306 304 301 301 299 295 293 291 289 289 288 288 287 286 285 279 280 287 287 285 286 286 287 287 287 288 287 282 277 270
180 183 182 180 172 176 178 172 163 157 152 138 131 118 115 99 86 84 73 66 60 58 50 44 35 33 21 18 6 11 359 352 347 340 333 331 331 335 340 342 342 352 346 339 336 326 318 315 318 318 318 315 311 313 311 309 304 301 299 297 295 293 289 286 284 284 284 284 285 287 286 278 271 276 281 281 281 281 281 281 283 284 283 278 273
186 185 182 175 172 180 175 172 169 158 151 139 130 125 113 101 102 99 89 69 57 59 58 60 44 38 31 14 8 7 353 342 342 337 331 324 326 330 328 338 341 346 343 340 330 319 312 309 308 307 304 303 304 304 304 302 302 301 300 295 293 291 289 289 286 284 282 282 282 283 283 286 280 272 273 276 278 277 276 277 278 279 281 284 280
188 182 179 173 177 179 174 173 167 156 160 143 141 139 136 132 142 137 110 91 84 66 77 91 8 61 18 24 7 357 343 341 336 329 323 316 320 319 329 332 339 342 333 329 323 315 313 314 313 312 305 307 300 302 303 299 299 300 299 296 296 290 288 286 285 283 282 281 281 280 279 283 283 280 269 263 268 273 274 274 275 276 277 277 278
179 182 177 179 176 174 170 166 167 163 158 153 154 162 160 160 163 157 117 139 100 128 165 237 93 317 32 31 353 353 335 331 329 321 318 315 314 312 321 325 334 333 325 327 327 325 317 315 315 314 313 307 308 310 308 304 301 299 297 297 292 290 289 284 283 281 280 278 279 278 278 276 279 281 282 274 264 264 268 270 269 271 273 275 274
177 181 182 180 176 175 172 165 171 164 160 161 169 168 161 171 178 163 141 127 146 207 200 205 216 221 252 165 344 332 318 317 314 313 310 308 309 307 311 317 329 319 317 324 317 313 307 309 311 311 306 304 305 305 305 302 303 300 295 295 292 293 288 285 282 278 276 276 274 273 273 274 274 276 277 279 275 262 260 266 271 271 270 271 271
186 179 176 178 180 178 174 171 173 167 170 168 172 169 170 174 177 157 142 152 213 210 210 212 230 227 205 237 211 283 307 304 303 300 300 302 302 302 304 314 312 307 309 308 303 298 303 300 296 298 305 303 305 304 305 302 301 300 298 293 290 286 282 280 278 277 274 275 272 272 270 271 272 272 274 277 277 278 271 267 267 267 269 270 272
185 178 178 178 180 176 178 178 177 174 173 172 170 172 172 169 181 169 156 181 225 216 213 223 233 222 235 243 226 281 292 288 286 286 284 287 292 296 295 296 301 299 296 304 296 296 301 297 296 299 297 303 303 301 302 303 303 299 297 292 285 285 280 278 277 275 275 269 270 269 266 265 266 264 265 266 271 274 270 260 256 260 260 259 263
186 180 182 179 181 176 180 181 175 175 174 171 174 175 175 173 178 177 185 209 218 240 232 231 234 247 239 242 237 272 279 278 277 279 281 281 281 283 287 285 291 292 293 296 293 290 288 295 299 299 300 302 303 307 306 305 302 299 294 289 286 280 277 277 273 274 271 271 269 267 267 268 266 264 264 265 268 271 274 274 266 256 253 255 257
185 183 180 179 179 176 180 176 175 175 174 173 171 175 168 180 171 182 196 218 221 227 237 238 240 241 241 243 252 256 267 267 267 270 274 283 280 278 277 283 282 283 285 283 288 286 289 297 296 297 296 294 296 297 299 304 301 296 291 287 283 276 273 271 271 268 265 266 267 268 268 266 266 266 265 266 265 265 268 271 276 275 264 246 243
184 182 180 179 180 177 179 177 181 177 176 176 176 182 184 185 187 184 203 214 222 218 220 231 237 235 231 242 241 249 264 267 267 270 271 273 284 281 279 277 273 275 278 280 285 298 301 299 294 297 296 293 285 289 299 305 300 293 286 280 275 280 276 269 267 265 265 263 263 266 269 268 265 267 265 264 264 265 266 267 267 269 272 266 255
182 182 181 184 186 180 178 183 181 179 179 180 183 185 182 183 187 201 205 196 206 211 223 225 222 233 230 243 246 249 258 264 264 266 274 277 275 278 274 271 269 271 268 274 284 288 291 290 296 294 295 299 298 298 304 309 305 300 294 289 289 279 268 266 261 259 257 257 261 267 267 267 264 264 266 265 265 266 266 268 267 266 267 274 267
188 184 186 186 186 183 184 182 180 182 188 186 181 183 186 186 181 184 193 196 202 212 222 207 216 225 237 241 246 250 257 262 266 270 272 271 275 275 273 270 273 275 276 278 279 284 287 294 301 302 295 299 298 305 305 315 306 321 323 319 302 276 265 259 250 250 254 258 260 264 269 273 274 274 274 272 272 269 269 269 268 268 267 268 270
186 187 186 183 186 183 185 184 183 182 188 185 180 185 180 177 181 170 184 197 215 250 258 251 241 242 240 240 243 253 259 259 260 264 268 268 269 271 271 276 275 282 288 290 291 290 293 295 301 303 310 300 289 292 295 296 300 312 300 290 304 327 308 270 251 249 258 264 271 274 274 273 275 276 278 277 272 272 271 271 272 271 273 272 271
187 186 186 186 183 185 184 184 182 184 185 184 185 177 172 166 178 183 183 225 234 207 237 241 239 239 242 239 238 248 254 260 261 261 260 261 263 266 272 272 278 279 282 289 290 289 293 301 302 301 302 302 301 298 299 292 286 316 315 318 306 301 300 311 329 296 287 274 266 267 268 270 274 272 273 273 273 275 272 270 269 271 272 271 276
189 187 185 185 182 183 182 180 180 185 184 179 180 173 163 170 175 176 201 220 232 235 230 230 221 227 235 231 233 235 248 257 259 255 256 259 260 260 265 273 274 278 281 282 286 288 291 286 291 290 288 295 300 298 293 278 270 254 266 303 307 286 277 303 333 297 279 260 262 269 270 274 276 276 275 271 274 277 278 274 271 272 272 271 265
194 190 183 183 174 179 178 179 181 183 183 179 180 178 178 183 179 188 195 201 210 204 213 216 204 212 226 231 240 241 247 253 254 258 255 259 261 263 266 271 277 278 282 287 287 288 285 287 287 288 286 282 288 298 293 280 263 254 246 245 251 273 302 306 319 299 313 270 274 265 266 269 269 271 270 271 272 273 273 273 269 269 269 267 268
197 181 177 180 178 180 178 179 181 181 181 180 179 179 182 189 195 200 208 211 216 215 218 226 232 241 252 258 261 260 255 259 262 260 262 264 269 268 268 271 279 284 287 288 288 286 285 283 279 274 276 283 281 283 287 293 289 256 245 246 250 256 263 281 288 304 300 304 265 278 280 275 278 277 273 271 272 274 273 272 274 273 269 269 267
186 176 176 180 182 181 177 181 181 180 176 176 179 183 185 189 192 200 210 219 221 224 211 229 240 257 258 263 272 269 266 261 267 269 267 267 267 268 266 271 278 281 284 279 277 278 278 273 267 265 267 262 262 266 282 283 279 284 262 259 255 255 254 256 258 267 283 294 297 289 269 275 277 266 269 270 267 267 269 269 268 267 266 265 265
183 178 179 181 180 179 178 179 182 181 178 179 180 185 189 188 191 196 208 218 221 228 227 231 243 241 252 259 262 269 267 260 255 260 257 258 258 261 264 269 272 275 271 273 273 271 271 272 270 266 263 265 259 263 269 271 270 271 276 266 263 260 260 255 256 255 260 283 285 286 289 291 278 272 271 269 268 267 267 269 267 267 266 265 264
181 175 176 175 177 174 179 179 184 182 178 180 182 185 189 187 194 201 204 209 210 217 220 226 228 235 246 248 254 259 258 260 256 253 255 255 258 263 268 269 270 272 271 272 275 274 272 269 266 265 266 264 261 259 257 264 267 267 262 269 267 265 261 259 251 250 257 251 265 286 289 288 289 280 273 269 270 268 266 265 267 264 261 260 258
171 174 179 181 179 179 180 182 183 181 179 181 183 186 188 192 198 200 203 209 211 216 220 222 225 231 243 250 253 260 264 267 270 266 259 260 262 266 270 273 278 274 273 275 274 276 275 275 275 269 264 260 262 262 262 261 262 263 260 257 257 254 255 258 259 254 254 259 264 268 277 278 274 282 275 271 270 272 264 262 262 261 259 259 262